Theta_e
325 324 323 322 321 321 321 320 319 319 318 318 318 317 316 316 316 318 319 319 320 320 320 321 322 323 314 301 302 314 327 326 315 309 304 302 300 299 296 296 298 296 297 299 300 299 297
327 326 326 325 324 324 322 321 321 320 319 318 318 317 317 316 316 317 318 318 319 320 320 320 321 323 303 293 306 314 310 310 307 305 302 302 300 301 298 297 296 296 297 298 298 298 297
328 327 327 327 326 324 323 322 321 321 320 319 318 317 317 317 316 317 317 318 318 319 319 320 322 318 305 298 307 309 307 305 305 304 300 301 301 299 297 296 299 297 294 295 297 297 296
327 327 327 327 326 325 324 323 322 321 320 319 318 317 317 317 317 318 319 319 319 319 319 320 323 312 296 307 305 305 304 303 304 304 303 304 303 300 297 299 296 292 291 288 293 294 295
327 326 326 326 326 325 324 323 322 322 320 319 318 317 317 317 317 318 318 319 319 319 320 322 311 303 297 311 303 305 304 302 303 303 303 306 301 296 296 291 287 286 284 285 291 295 294
327 326 325 325 325 325 324 323 323 322 320 319 318 317 317 317 318 318 319 319 317 316 316 317 313 299 300 300 305 304 302 304 301 301 299 298 295 291 291 287 282 283 283 286 287 291 291
327 326 325 325 324 324 323 322 322 322 321 320 319 318 318 318 318 319 315 305 297 296 302 297 297 297 300 304 305 302 303 302 302 297 290 293 288 286 291 291 292 286 285 285 289 292 290
326 326 325 325 324 323 322 322 322 323 322 320 319 319 318 318 318 319 307 301 299 299 291 299 298 300 303 304 298 301 303 296 295 291 292 289 286 292 292 291 290 289 288 288 291 293 289
326 326 325 325 324 324 322 322 322 322 322 320 319 318 318 318 318 310 303 300 305 304 292 295 297 295 296 302 297 298 300 295 292 290 290 289 290 295 292 290 289 288 287 288 288 289 288
323 324 324 324 324 323 322 322 321 321 320 319 319 318 318 317 309 305 301 304 305 302 283 288 293 295 299 299 292 299 298 296 291 290 289 288 294 292 290 289 290 287 291 291 289 284 283
319 318 318 317 317 318 318 319 320 320 319 319 318 318 318 316 305 304 305 304 302 295 280 292 293 301 299 293 292 293 295 294 289 289 289 288 288 288 288 291 291 290 290 288 286 283 282
316 316 316 315 315 315 315 316 316 316 318 319 318 318 317 312 307 309 307 303 298 286 282 288 292 291 291 293 292 293 293 294 293 289 289 289 291 291 290 290 290 290 287 286 283 282 280
313 313 312 313 312 312 313 313 314 314 314 315 316 317 314 315 308 308 307 301 293 285 291 288 288 291 289 289 290 290 288 287 286 282 282 285 287 289 291 287 288 288 284 278 276 275 278
309 309 309 309 310 310 311 312 312 312 313 314 314 316 313 316 311 309 307 299 287 292 289 293 290 289 288 290 290 289 286 284 287 284 282 281 282 287 289 290 286 286 286 279 271 276 281
306 306 305 306 307 308 309 310 309 310 310 311 313 315 312 313 311 310 301 291 291 296 296 293 295 288 286 288 288 287 284 284 287 288 284 281 283 287 289 289 290 284 282 289 279 268 272
303 303 303 303 303 304 306 307 307 307 308 309 307 309 309 313 312 307 296 293 295 299 299 298 292 293 285 286 287 288 288 287 288 289 292 288 283 288 285 286 286 286 288 280 280 272 270
301 301 301 302 301 302 302 303 304 305 306 307 305 300 306 313 310 299 290 292 295 300 300 296 294 293 292 291 290 290 290 290 290 291 292 290 287 286 284 284 286 282 282 283 283 282 279
299 299 299 300 300 300 300 301 303 304 305 307 302 292 308 311 296 296 293 295 298 297 299 298 296 296 293 294 293 293 293 295 293 292 289 291 288 284 286 290 286 286 286 287 282 281 283
299 299 298 299 300 299 299 299 300 300 302 298 296 298 308 307 290 292 294 294 297 295 296 295 294 295 296 293 289 292 293 298 299 296 292 292 287 282 283 286 289 287 289 287 288 286 282
298 299 299 299 299 299 300 298 298 298 300 296 292 287 296 299 299 293 291 292 291 296 295 296 295 296 293 290 293 290 291 295 295 295 298 297 290 286 282 286 288 283 286 288 286 282 282
297 298 298 298 298 298 299 299 300 299 299 296 289 286 291 287 291 292 293 292 289 289 294 295 293 293 290 287 287 287 288 286 289 295 293 293 286 287 288 289 289 289 288 288 286 286 282
298 297 298 298 298 298 298 299 298 298 299 288 285 284 287 286 287 287 289 288 289 290 291 290 289 284 286 282 284 282 285 284 283 287 285 286 282 285 284 287 286 284 287 287 287 288 288
298 298 297 297 297 298 297 298 298 298 297 286 287 291 288 282 282 280 280 283 284 284 287 290 284 281 281 282 284 284 285 284 284 283 281 282 282 280 276 284 284 280 285 286 287 289 288
299 299 298 298 298 298 298 298 297 297 298 291 288 288 282 277 280 279 281 281 280 281 280 282 281 280 283 286 285 282 282 282 282 283 285 280 279 279 276 279 271 283 290 290 288 289 291
299 300 300 300 300 299 298 298 298 298 298 291 292 289 282 275 279 279 279 279 280 279 279 279 280 282 285 281 273 267 267 267 275 280 281 283 280 278 275 276 281 285 285 282 283 282 283
299 299 299 299 299 299 299 299 299 298 298 291 290 293 288 279 276 281 278 279 275 274 274 279 282 284 282 278 264 259 258 264 263 271 278 279 281 279 277 273 271 276 281 281 282 278 278
297 298 298 299 299 299 299 299 299 298 298 293 288 291 288 281 282 281 277 276 280 276 272 272 275 274 280 272 256 257 258 271 262 261 265 264 265 266 270 271 275 277 278 281 275 271 278
297 297 296 297 298 299 299 298 298 298 298 295 289 292 287 282 282 284 284 280 278 278 270 270 273 269 268 264 263 264 261 268 265 270 268 267 265 268 268 264 265 278 277 270 275 280 282
297 297 297 296 298 298 298 298 298 297 297 296 288 290 293 284 279 286 286 288 287 286 282 278 275 267 274 264 263 262 262 259 261 260 274 265 271 268 270 270 276 278 278 280 282 277 278
Wind_Speed
8 8 7 7 6 7 5 4 4 3 3 5 6 7 9 13 15 17 18 18 17 16 15 14 13 11 4 0 12 6 8 7 5 6 7 7 6 6 6 5 2 7 6 6 7 7 6
7 9 10 9 8 8 7 7 6 6 6 7 8 8 9 11 13 16 18 19 19 17 16 14 12 5 1 4 2 8 9 7 5 5 5 7 8 7 4 5 7 3 4 7 6 7 5
8 9 8 9 9 9 9 8 8 8 8 8 8 9 10 12 14 16 18 19 19 18 17 15 9 2 3 16 1 6 8 5 4 5 4 3 2 3 0 5 3 4 8 8 11 7 10
8 8 9 9 9 9 9 9 9 9 9 9 9 9 11 12 14 17 19 20 19 18 17 13 6 3 8 2 4 5 4 1 0 3 2 1 3 2 2 4 7 4 2 5 0 6 4
9 9 9 9 10 9 9 9 9 9 9 10 9 10 12 13 15 18 20 22 20 16 6 4 4 4 9 1 2 5 5 3 4 3 4 3 3 4 2 3 5 2 7 9 15 11 6
11 10 10 9 9 10 9 9 9 9 9 10 9 10 12 13 16 19 22 22 7 2 2 2 2 2 4 6 4 4 4 6 3 5 3 3 4 2 1 4 10 9 6 6 9 3 4
12 11 10 10 10 10 10 10 9 9 10 10 10 10 12 13 16 20 13 5 5 2 1 9 6 6 2 2 2 5 4 7 5 4 6 4 5 12 21 17 15 2 6 7 9 6 5
12 12 12 11 11 11 11 11 10 10 10 10 9 9 12 13 15 20 3 5 1 2 9 7 12 10 9 5 4 4 5 7 6 8 6 2 12 18 7 6 9 12 17 22 18 20 7
10 12 10 11 11 13 11 11 11 11 11 10 9 9 10 13 14 4 2 2 1 5 3 11 7 6 6 9 10 7 11 4 5 7 10 16 10 12 12 9 11 13 14 19 18 6 6
8 5 1 4 11 9 10 10 10 10 10 10 10 9 8 12 3 3 2 2 2 3 3 9 4 4 1 5 2 4 1 5 3 10 8 9 11 14 8 9 15 16 14 15 14 2 11
14 14 12 14 10 9 6 1 2 4 8 8 10 10 7 3 3 3 1 3 3 3 7 5 3 1 2 5 1 4 1 3 5 4 5 10 4 6 11 21 10 14 5 6 3 5 5
15 15 12 12 10 10 9 9 9 10 7 9 6 8 6 2 2 5 2 2 2 4 10 5 2 2 3 1 0 1 4 4 2 4 6 12 3 6 10 6 8 2 3 4 5 2 15
14 12 11 11 9 9 9 10 10 7 6 7 7 5 8 2 2 1 1 1 2 7 1 5 6 5 4 5 4 6 6 7 7 3 6 3 7 5 6 3 3 4 6 5 5 1 15
10 10 11 9 9 9 8 9 10 11 12 11 7 5 7 3 5 2 4 1 13 9 7 2 2 2 6 7 7 6 5 4 6 1 3 2 15 9 5 12 10 11 12 9 10 12 19
7 8 7 7 7 8 8 10 11 11 11 11 11 2 2 4 6 2 3 7 4 4 5 4 5 4 6 5 6 5 6 6 8 16 11 6 15 2 5 4 10 4 8 16 2 1 2
6 7 7 6 6 7 8 10 10 11 12 13 3 2 4 6 11 4 4 18 9 6 3 3 6 7 6 5 5 4 6 4 5 11 10 5 13 7 3 2 3 8 4 3 1 4 8
6 5 5 7 7 9 10 10 11 12 13 15 3 3 2 11 5 3 13 9 6 5 2 6 5 11 9 7 6 9 8 4 5 2 9 2 2 19 1 7 12 1 4 5 3 6 15
4 4 5 6 7 6 8 10 11 12 16 1 3 5 4 9 6 4 14 6 7 7 6 8 4 14 18 17 19 21 21 16 2 5 7 5 7 11 25 14 3 4 12 13 13 14 12
5 5 5 5 5 6 7 8 9 10 11 3 3 3 4 3 9 12 5 7 8 15 14 5 9 9 13 21 19 24 23 20 18 8 6 7 3 6 4 10 14 15 22 17 18 18 24
8 7 5 4 7 8 9 6 7 6 8 2 3 3 4 3 7 7 13 16 16 6 14 14 16 11 16 22 23 24 28 13 9 12 16 9 18 18 21 21 11 9 12 22 22 19 24
9 8 7 8 7 8 8 9 6 6 5 2 2 4 2 3 10 12 11 5 13 18 7 2 6 14 14 11 9 9 8 10 12 16 7 9 23 22 25 30 29 30 30 27 26 27 27
8 11 9 10 9 9 11 9 6 5 4 2 2 1 4 4 5 3 5 14 19 12 8 9 9 5 5 4 5 8 6 5 5 7 7 7 8 13 20 22 25 29 30 33 35 37 37
13 12 12 11 10 10 11 9 7 7 2 2 2 2 1 3 2 2 3 4 2 5 4 6 6 7 9 5 8 12 14 16 17 18 21 12 9 11 23 19 18 22 27 33 34 33 29
16 15 15 14 13 13 11 11 10 10 8 3 3 2 1 5 4 4 1 3 5 1 5 6 6 4 3 7 8 7 11 18 20 23 21 19 21 13 20 23 33 23 16 24 31 33 32
17 16 17 18 15 17 14 13 12 12 11 3 2 3 3 5 5 10 9 8 7 3 5 13 6 6 3 6 4 7 6 6 9 20 21 22 20 11 13 21 21 11 8 10 11 4 13
18 17 16 17 17 18 15 17 16 14 15 3 4 4 3 2 8 13 11 10 7 4 3 8 6 4 2 2 4 5 4 5 7 8 9 16 12 14 19 24 25 6 13 18 13 12 21
20 21 18 18 18 18 15 17 17 14 19 5 3 6 3 4 5 5 5 5 6 2 3 3 4 3 1 2 2 3 6 3 3 3 6 5 6 7 13 17 10 13 16 17 7 13 21
18 20 19 21 19 20 18 18 15 16 16 10 4 7 6 5 8 7 7 8 2 3 5 5 5 4 3 2 4 5 4 4 1 3 7 6 4 9 5 5 11 22 17 6 12 11 8
19 19 21 20 18 19 18 19 18 17 17 11 4 4 6 5 6 3 7 13 10 12 7 5 6 6 5 3 1 2 2 2 4 8 5 5 6 4 3 7 20 13 8 14 1 4 5
Wind_Direction
218 220 235 246 253 267 275 276 291 305 320 319 325 329 330 331 328 327 326 323 322 322 322 322 326 333 332 242 249 154 141 150 140 152 178 174 172 175 201 207 229 225 248 227 235 269 261
267 229 232 232 239 255 271 276 279 288 294 308 314 317 314 316 321 319 319 318 316 315 314 312 315 323 117 248 239 157 151 146 186 174 194 165 203 206 234 228 190 256 263 268 267 239 250
241 255 253 250 235 246 264 267 268 276 287 293 301 307 305 304 310 309 309 308 305 305 305 303 295 226 178 233 245 163 155 190 179 178 190 220 199 151 259 288 284 301 306 308 249 229 231
236 245 253 253 248 249 258 265 268 269 275 286 294 302 302 304 303 305 304 304 302 298 295 286 220 176 242 327 121 139 174 276 230 187 136 35 125 167 193 306 356 312 335 314 301 139 235
236 238 243 250 253 251 252 259 265 271 275 282 289 296 298 304 305 306 307 304 302 294 274 181 134 167 260 106 182 211 148 187 123 73 49 65 97 173 344 97 354 286 243 225 295 196 160
232 233 237 246 253 258 258 256 259 266 272 277 280 287 293 299 305 308 312 306 280 16 99 187 262 30 268 229 195 165 178 148 130 108 76 114 61 161 347 124 227 221 223 253 244 244 185
232 238 239 237 242 249 254 257 256 259 263 269 274 279 289 298 308 315 334 360 12 13 1 193 203 229 258 141 92 200 161 128 109 102 174 198 133 207 222 212 234 203 227 243 256 247 225
233 232 235 241 246 246 250 255 257 259 262 266 272 282 292 301 312 320 345 67 130 207 304 259 247 255 255 172 210 230 122 149 151 198 151 158 214 225 235 208 221 242 257 262 270 264 212
253 235 235 244 246 247 243 250 256 261 263 267 271 280 289 300 313 347 5 146 203 143 238 285 228 213 238 163 224 221 151 151 170 182 201 219 224 212 216 230 241 227 232 251 256 301 248
69 67 4 270 270 272 247 252 249 257 262 264 267 267 274 300 328 325 260 214 164 125 360 273 263 279 8 163 261 27 312 162 197 229 207 237 239 215 187 217 215 256 227 254 261 285 272
79 65 63 53 41 45 42 284 237 272 277 252 261 254 242 224 287 310 231 203 140 84 299 251 218 316 48 143 129 7 351 28 211 196 163 243 208 189 221 234 179 252 166 231 215 214 338
76 79 71 76 48 36 33 30 35 29 356 293 271 261 199 199 251 240 174 148 83 54 250 292 173 138 100 84 22 64 93 43 282 255 225 239 203 188 210 193 204 98 59 37 65 119 263
75 71 70 58 55 61 29 24 25 7 4 360 341 273 177 153 251 359 209 43 284 218 315 249 215 171 175 194 212 178 164 165 197 266 240 312 227 213 160 224 139 131 90 301 324 6 254
61 59 52 43 34 27 34 48 29 22 2 340 346 262 216 200 148 259 45 264 224 185 229 334 111 113 190 157 239 182 151 225 242 226 320 262 292 176 179 200 192 205 186 179 204 248 269
61 59 42 35 30 15 13 24 23 15 359 347 319 200 202 205 151 109 110 226 248 216 202 228 326 250 221 239 209 140 215 226 211 183 192 207 268 167 198 163 152 176 179 234 326 108 19
65 49 36 23 18 10 13 9 360 1 350 351 322 255 209 176 148 121 193 246 246 229 261 259 230 204 208 189 186 175 188 191 227 186 229 279 269 225 151 121 278 183 167 117 186 203 247
56 42 24 11 18 13 11 9 0 349 334 332 255 241 234 141 128 174 226 232 223 218 191 220 238 250 248 251 239 249 232 224 219 197 177 78 326 270 166 210 234 181 248 230 181 195 246
318 311 344 338 331 342 355 355 360 2 343 286 260 237 160 155 184 208 232 214 227 242 239 254 250 261 264 270 260 256 254 243 227 222 199 170 175 235 263 261 301 271 265 241 235 244 233
291 288 303 315 313 317 316 329 338 352 358 323 242 249 185 236 222 224 212 234 233 246 235 224 245 231 251 254 268 254 255 254 249 230 236 182 222 267 260 291 250 230 245 241 256 259 249
287 292 288 290 310 316 314 303 306 325 343 12 296 261 198 217 250 257 245 247 244 230 250 241 254 261 273 270 261 270 271 272 234 230 239 238 246 238 253 264 279 266 224 238 242 254 252
281 267 261 269 276 288 289 283 319 332 338 19 254 244 325 213 233 248 247 275 269 266 237 167 241 245 269 273 295 299 330 9 348 316 277 244 241 234 244 251 254 256 265 259 251 246 249
266 271 268 274 270 265 269 274 277 308 19 79 245 296 333 292 298 274 248 237 257 269 259 251 248 25 324 269 324 312 335 19 285 312 328 313 287 296 282 272 257 250 248 252 261 259 260
253 252 264 263 258 264 270 267 262 273 195 180 280 337 309 269 334 95 228 267 306 37 268 251 13 337 292 302 327 297 286 269 251 267 277 266 272 284 278 289 297 275 257 259 258 261 256
255 256 251 250 253 258 257 254 248 253 228 173 189 119 311 267 220 206 292 352 310 360 268 277 340 329 287 337 293 269 249 255 253 248 239 252 264 256 272 272 268 272 237 238 250 257 266
269 267 258 257 252 253 251 258 243 242 240 179 173 160 194 258 249 254 262 263 273 277 275 282 280 243 315 346 337 345 321 348 261 239 243 229 244 265 255 256 280 284 10 350 338 62 28
268 276 275 268 257 257 250 240 247 242 240 166 214 159 213 248 239 242 250 247 258 214 266 255 273 215 160 180 80 202 231 229 285 304 328 317 295 270 285 280 273 50 5 316 294 217 360
263 268 266 268 260 255 244 244 250 241 245 224 223 178 179 255 236 201 203 201 177 194 203 294 267 10 71 191 121 172 244 226 274 298 341 336 328 268 278 276 276 17 5 332 277 331 326
253 255 267 268 260 256 247 245 240 242 241 235 221 190 179 246 258 206 215 220 202 169 174 245 15 340 32 141 152 231 191 218 204 242 312 283 284 300 325 308 252 8 345 356 287 311 299
264 264 265 261 261 257 251 246 242 247 248 243 213 197 202 216 238 201 229 243 236 239 231 200 207 184 221 93 309 73 318 355 174 273 214 268 197 229 192 253 295 309 289 300 331 311 330